TimeEST,TemperatureF,Dew PointF,Humidity,Sea Level PressureIn,VisibilityMPH,Wind Direction,Wind SpeedMPH,Gust SpeedMPH,PrecipitationIn,Events,Conditions,WindDirDegrees,DateUTC
12:53 AM,46.4,44.6,93,29.98,6.0,Calm,Calm,-,N/A,,Clear,0,2013-01-30 05:53:00
12:55 AM,45.9,44.8,96,29.98,6.0,Calm,Calm,-,N/A,,Clear,0,2013-01-30 05:55:00
1:01 AM,46.4,46.4,100,29.98,7.0,Calm,Calm,-,N/A,,Clear,0,2013-01-30 06:01:00
1:47 AM,44.6,44.6,100,29.96,2.5,Calm,Calm,-,N/A,,Clear,0,2013-01-30 06:47:00
1:48 AM,44.6,44.6,100,29.96,2.0,Calm,Calm,-,N/A,,Clear,0,2013-01-30 06:48:00
1:53 AM,44.6,42.8,93,29.96,2.5,Calm,Calm,-,N/A,,Clear,0,2013-01-30 06:53:00
1:54 AM,44.6,42.8,93,29.96,3.0,Calm,Calm,-,N/A,,Clear,0,2013-01-30 06:54:00
1:55 AM,44.8,43.7,96,29.96,3.0,Calm,Calm,-,N/A,,Clear,0,2013-01-30 06:55:00
2:05 AM,44.6,42.8,93,29.95,8.0,Calm,Calm,-,N/A,,Clear,0,2013-01-30 07:05:00
2:22 AM,44.6,42.8,93,29.94,8.0,Calm,Calm,-,N/A,,Partly Cloudy,0,2013-01-30 07:22:00
2:36 AM,44.6,42.8,93,29.94,6.0,Calm,Calm,-,N/A,,Partly Cloudy,0,2013-01-30 07:36:00
2:39 AM,44.6,42.8,93,29.94,7.0,Calm,Calm,-,N/A,,Partly Cloudy,0,2013-01-30 07:39:00
2:55 AM,44.6,43.5,96,29.93,8.0,Calm,Calm,-,N/A,,Partly Cloudy,0,2013-01-30 07:55:00
2:59 AM,44.6,42.8,93,29.93,8.0,Calm,Calm,-,N/A,,Partly Cloudy,0,2013-01-30 07:59:00
3:21 AM,44.6,42.8,93,29.92,8.0,Calm,Calm,-,N/A,,Clear,0,2013-01-30 08:21:00
3:55 AM,44.8,43.7,96,29.90,9.0,Calm,Calm,-,N/A,,Clear,0,2013-01-30 08:55:00
4:55 AM,46.4,45.1,95,29.88,10.0,ESE,4.6,-,N/A,,Clear,120,2013-01-30 09:55:00
5:37 AM,48.2,46.4,93,29.87,6.0,Calm,Calm,-,N/A,,Clear,0,2013-01-30 10:37:00
5:46 AM,48.2,48.2,100,29.86,6.0,SSE,4.6,-,N/A,,Clear,150,2013-01-30 10:46:00
5:55 AM,47.5,46.4,96,29.86,10.0,SE,3.5,-,N/A,,Clear,130,2013-01-30 10:55:00
6:10 AM,46.4,44.6,93,29.85,9.0,ESE,3.5,-,N/A,,Clear,120,2013-01-30 11:10:00
6:17 AM,48.2,48.2,100,29.85,8.0,SE,5.8,-,N/A,,Clear,140,2013-01-30 11:17:00
6:55 AM,58.3,55.0,89,29.85,10.0,Calm,Calm,-,N/A,,Partly Cloudy,0,2013-01-30 11:55:00
7:09 AM,59.0,55.4,88,29.86,10.0,Variable,4.6,-,N/A,,Mostly Cloudy,0,2013-01-30 12:09:00
7:55 AM,61.2,56.8,86,29.84,10.0,Variable,6.9,-,N/A,,Overcast,0,2013-01-30 12:55:00
8:51 AM,62.6,59.0,88,29.83,10.0,Variable,6.9,-,N/A,,Scattered Clouds,0,2013-01-30 13:51:00
8:55 AM,63.5,58.5,84,29.83,10.0,Variable,5.8,-,N/A,,Scattered Clouds,0,2013-01-30 13:55:00
9:00 AM,64.4,59.0,83,29.83,10.0,South,8.1,-,N/A,,Mostly Cloudy,170,2013-01-30 14:00:00
9:03 AM,64.4,59.0,83,29.83,10.0,Variable,5.8,-,N/A,,Scattered Clouds,0,2013-01-30 14:03:00
9:04 AM,64.4,59.0,83,29.82,10.0,SSE,6.9,-,N/A,,Mostly Cloudy,150,2013-01-30 14:04:00
9:09 AM,64.4,59.0,83,29.83,10.0,South,5.8,-,N/A,,Scattered Clouds,170,2013-01-30 14:09:00
9:55 AM,66.6,59.5,78,29.80,10.0,South,10.4,16.1,N/A,,Mostly Cloudy,170,2013-01-30 14:55:00
10:23 AM,68.0,59.0,73,29.78,10.0,SSE,11.5,19.6,N/A,,Mostly Cloudy,150,2013-01-30 15:23:00
10:55 AM,67.5,59.9,77,29.77,10.0,South,8.1,-,N/A,,Overcast,170,2013-01-30 15:55:00
11:55 AM,68.4,60.1,75,29.72,10.0,SSE,12.7,19.6,N/A,,Overcast,150,2013-01-30 16:55:00
12:55 PM,68.9,60.4,74,29.68,10.0,South,10.4,20.7,N/A,,Overcast,170,2013-01-30 17:55:00
12:56 PM,68.0,60.8,78,29.68,10.0,South,10.4,20.7,N/A,,Overcast,180,2013-01-30 17:56:00
12:57 PM,68.0,60.8,78,29.67,10.0,SSE,9.2,17.3,N/A,,Overcast,160,2013-01-30 17:57:00
12:58 PM,68.0,60.8,78,29.67,10.0,SSE,9.2,17.3,N/A,,Overcast,160,2013-01-30 17:58:00
1:55 PM,70.0,60.8,73,29.65,10.0,SSE,8.1,-,N/A,,Overcast,150,2013-01-30 18:55:00
2:55 PM,70.7,60.3,69,29.63,10.0,South,8.1,-,N/A,,Overcast,190,2013-01-30 19:55:00
3:55 PM,70.3,60.6,71,29.62,10.0,South,10.4,21.9,N/A,,Overcast,180,2013-01-30 20:55:00
4:55 PM,70.3,61.2,73,29.59,10.0,SSE,8.1,20.7,N/A,,Mostly Cloudy,150,2013-01-30 21:55:00
5:55 PM,69.8,61.3,74,29.56,10.0,SSE,10.4,21.9,N/A,,Mostly Cloudy,150,2013-01-30 22:55:00
6:55 PM,69.4,60.8,74,29.52,10.0,SE,9.2,-,N/A,,Mostly Cloudy,140,2013-01-30 23:55:00
7:55 PM,70.2,60.1,70,29.47,10.0,SE,11.5,20.7,N/A,,Overcast,130,2013-01-31 00:55:00
8:06 PM,69.8,59.0,68,29.51,6.0,WNW,28.8,36.8,N/A,Rain,Light Rain,300,2013-01-31 01:06:00
8:07 PM,68.0,59.0,73,29.51,6.0,NW,23.0,36.8,N/A,Rain,Light Rain,310,2013-01-31 01:07:00
8:09 PM,66.2,59.0,78,29.49,5.0,NNW,13.8,36.8,N/A,Rain,Light Rain,330,2013-01-31 01:09:00
8:10 PM,64.4,59.0,83,29.49,5.0,NW,15.0,36.8,N/A,Rain,Light Rain,320,2013-01-31 01:10:00
8:13 PM,62.6,59.0,88,29.50,3.0,West,10.4,36.8,N/A,Rain,Light Rain,280,2013-01-31 01:13:00
8:14 PM,62.6,59.0,88,29.51,2.5,West,11.5,36.8,N/A,Rain,Heavy Rain,280,2013-01-31 01:14:00
8:21 PM,60.8,57.2,88,29.51,2.0,WNW,10.4,18.4,N/A,Rain,Heavy Rain,300,2013-01-31 01:21:00
8:24 PM,60.8,57.2,88,29.55,2.5,West,12.7,-,N/A,Rain,Heavy Rain,260,2013-01-31 01:24:00
8:25 PM,60.8,57.2,88,29.54,2.0,West,11.5,-,N/A,Rain,Heavy Rain,270,2013-01-31 01:25:00
8:26 PM,59.0,57.2,94,29.52,1.8,West,9.2,-,N/A,Rain,Heavy Rain,280,2013-01-31 01:26:00
8:27 PM,59.0,57.2,94,29.52,1.5,WNW,8.1,-,N/A,Rain,Heavy Rain,290,2013-01-31 01:27:00
8:28 PM,59.0,57.2,94,29.51,1.5,WNW,6.9,-,N/A,Rain,Heavy Rain,290,2013-01-31 01:28:00
8:31 PM,59.0,57.2,94,29.50,1.8,WNW,5.8,-,N/A,Rain,Light Rain,300,2013-01-31 01:31:00
8:32 PM,59.0,57.2,94,29.50,2.0,WNW,4.6,-,N/A,Rain,Light Rain,300,2013-01-31 01:32:00
8:35 PM,59.0,57.2,94,29.49,2.5,Calm,Calm,-,N/A,Rain,Light Rain,0,2013-01-31 01:35:00
8:36 PM,59.0,57.2,94,29.49,3.0,Calm,Calm,-,N/A,Rain,Light Rain,0,2013-01-31 01:36:00
8:39 PM,59.0,57.2,94,29.49,8.0,WNW,3.5,-,N/A,Rain,Light Rain,300,2013-01-31 01:39:00
8:55 PM,58.6,57.2,95,29.51,6.0,West,6.9,-,0.31,Rain,Light Rain,270,2013-01-31 01:55:00
8:58 PM,59.0,57.2,94,29.49,2.5,Variable,3.5,-,N/A,Rain,Rain,0,2013-01-31 01:58:00
8:59 PM,59.0,57.2,94,29.48,2.0,Calm,Calm,-,N/A,Rain,Rain,0,2013-01-31 01:59:00
9:06 PM,59.0,57.2,94,29.49,2.5,Calm,Calm,-,N/A,Rain,Light Rain,0,2013-01-31 02:06:00
9:07 PM,59.0,57.2,94,29.49,3.0,Calm,Calm,-,N/A,Rain,Light Rain,0,2013-01-31 02:07:00
9:50 PM,57.2,57.2,100,29.41,4.0,ESE,6.9,-,N/A,Rain,Rain,110,2013-01-31 02:50:00
9:55 PM,57.9,57.2,97,29.41,4.0,SE,4.6,-,0.18,Rain,Rain,130,2013-01-31 02:55:00
10:23 PM,57.2,57.2,100,29.38,6.0,ESE,5.8,-,N/A,Rain,Light Rain,120,2013-01-31 03:23:00
10:54 PM,57.2,57.2,100,29.33,6.0,Variable,3.5,-,N/A,Rain,Rain,0,2013-01-31 03:54:00
10:55 PM,57.7,57.2,98,29.33,6.0,Variable,3.5,-,0.14,Rain,Rain,0,2013-01-31 03:55:00
10:58 PM,57.2,57.2,100,29.33,6.0,Variable,3.5,-,N/A,Rain,Light Rain,0,2013-01-31 03:58:00
11:52 PM,64.4,60.8,88,29.25,10.0,SSE,11.5,21.9,N/A,,Overcast,150,2013-01-31 04:52:00
11:55 PM,64.6,61.3,89,29.24,10.0,SSE,15.0,21.9,0.05,,Overcast,150,2013-01-31 04:55:00